Regional Weather Roundup
Issued by NWS

Home | Current Version | Previous Version | Text Only | Print | Product List | Glossary On
Versions: 1 2 3 4 5 6 7 8 9 10 11 12 13 14 15 16 17 18 19 20 21 22 23 24 25 26 27 28 29 30 31 32 33 34 35 36 37 38 39 40 41 42 43 44 45 46 47 48 49 50
000
ASUS43 KMPX 171710
RWRMN
WEATHER ROUNDUP FOR MINNESOTA
NATIONAL WEATHER SERVICE TWIN CITIES/CHANHASSEN MN
1200 PM CDT TUE OCT 17 2017


NOTE: "FAIR" INDICATES FEW OR NO CLOUDS BELOW 12,000 FEET WITH NO
SIGNIFICANT WEATHER AND/OR OBSTRUCTIONS TO VISIBILITY. N/A MEANS
CURRENT SKY AND/OR WEATHER CONDITIONS ARE NOT AVAILABLE.

MNZ060>063-068>070-171800-
   Twin Cities Metro

CITY           SKY/WX    TMP DP  RH WIND       PRES   REMARKS
TWIN CITIES    MOSUNNY   61  46  57 VRB3      30.02F
ST PAUL        SUNNY     59  47  64 SE9       30.03F
CRYSTAL        SUNNY     61  43  51 S6        30.00F
BLAINE         MOSUNNY   63  46  55 S7        30.01S
LAKEVILLE      SUNNY     63  45  51 S3        30.03S
EDEN PRAIRIE   SUNNY     61  45  55 VRB6      30.01F
SOUTH ST PAUL  SUNNY     60  45  57 SE5       30.02F
LAKE ELMO      FAIR      61  45  55 S6        30.03F
$$
MNZ001>005-007-008-013>017-022>024-027-028-171800-
   Northwest Minnesota

CITY           SKY/WX    TMP DP  RH WIND       PRES   REMARKS
BEMIDJI        CLOUDY    63  40  43 S10       29.90F
HALLOCK        SUNNY     63  37  39 S18G24    29.77F
ROSEAU           N/A    N/A N/A N/A S18       29.83F
WARROAD        SUNNY     63  41  45 S16       29.84F
THIEF RVR FALL SUNNY     62  37  39 SW16      29.86F
CROOKSTON      CLOUDY    61  39  44 SW17      29.86F
FOSSTON        CLOUDY    63  36  36 S20       29.90S
DETROIT LAKES  CLOUDY    61  37  41 SW9       29.93F
MOORHEAD       SUNNY     59  43  55 S9        29.92F
PARK RAPIDS    SUNNY     65  41  41 S12       29.93F
MAHNOMEN       FAIR      60  40  47 S13       29.90F
$$
MNZ006-009>011-018-025>026-171800-
   North Central Minnesota

CITY           SKY/WX    TMP DP  RH WIND       PRES   REMARKS
BAUDETTE       SUNNY     62  38  40 MISG      29.87F
FLAG ISLAND    SUNNY     52  43  71 S10       29.83F
INTL FALLS     SUNNY     62  36  37 S6        29.90F
WASKISH        PTSUNNY   66  37  34 S9        29.89F
BIG FORK       SUNNY     64  39  39 S9        29.92S
LONGVILLE      CLOUDY    66  36  32 S13G18    29.93F
GRAND RAPIDS   MOSUNNY   63  39  41 S12G21    29.95F
CRANE LAKE     SUNNY     57  37  47 S6        29.94F
ORR            SUNNY     63  32  31 S6        29.91S
COOK           SUNNY     63  37  39 S7        29.95R
WALKER         FAIR      61  38  41 S9G20     29.92F
$$
MNZ012-019>021-037-171800-
   Northeast Minnesota

CITY           SKY/WX    TMP DP  RH WIND       PRES   REMARKS
DULUTH         MOSUNNY   65  39  38 S9        29.96F
ELY            SUNNY     61  34  36 SW7       29.95S
HIBBING        SUNNY     58  41  53 VRB7      29.95F
EVELETH        CLOUDY    58  26  29 S3        29.97S
DULUTH HARBOR  CLOUDY    63  45  51 S3        29.97F
TWO HARBORS    MOSUNNY   64  46  52 CALM      29.94F
SILVER BAY     MOSUNNY   63  39  42 S7        29.94F
GRAND MARAIS     N/A     54  42  64 SW6       29.94F
G MARAIS ARPRT SUNNY     59  32  36 S6        29.96S
$$
MNZ029>031-032-039>041-046>048-054>057-064-171800-
   West Central Minnesota

CITY           SKY/WX    TMP DP  RH WIND       PRES   REMARKS
FERGUS FALLS   SUNNY     63  43  48 S9        29.96F
WHEATON        SUNNY     66  39  37 S6        29.97S
MORRIS         SUNNY     64  45  48 S9        29.96F
ALEXANDRIA     SUNNY     63  42  46 S6        29.99S
ELBOW LAKE     FAIR      62  44  50 S7        29.97F
WADENA         SUNNY     64  41  42 S12G17    29.94F
GLENWOOD       SUNNY     64  41  42 SW6       29.99F
APPLETON       SUNNY     64  39  39 S5        29.98F
BENSON         SUNNY     64  43  45 SW6       30.00F
ORTONVILLE     SUNNY     64  46  52 N3        29.97F
MADISON        SUNNY     72  41  33 SW6       29.98F
WILLMAR        FAIR      64  43  45 S3        30.01F
$$
MNZ033>034-036-042>043-049>051-058-059-171800-
   Central Minnesota

CITY           SKY/WX    TMP DP  RH WIND       PRES   REMARKS
ST CLOUD       SUNNY     63  45  51 S7        29.99F
SAUK CENTRE    FAIR      65  42  43 SW6       29.99S
PAYNESVILLE    SUNNY     65  45  47 S6        29.99F
AITKIN         SUNNY     63  37  39 S9G17     29.95F
PINE RIVER     SUNNY     63  39  42 S8        29.98F
BRAINERD       SUNNY     64  39  39 S9        29.97F
STAPLES        SUNNY     64  39  39 S8        29.96F
LONG PRAIRIE   FAIR      63  41  45 S6        30.00R
LITTLE FALLS   SUNNY     61  32  33 S7        29.99S
LITCHFIELD     SUNNY     66  46  48 CALM      30.00F
BUFFALO        SUNNY     60  45  56 S6        30.01F
MAPLE LAKE     SUNNY     63  48  56 S3        30.01F
HUTCHINSON     SUNNY     64  46  51 CALM      30.02F
$$
MNZ037-044-045-052-053-171800-
   East Central Minnesota

CITY           SKY/WX    TMP DP  RH WIND       PRES   REMARKS
PRINCETON      SUNNY     66  46  48 S6        29.99F
MORA           SUNNY     61  43  51 CALM      30.01F
CAMBRIDGE      SUNNY     66  48  52 S7        30.00S
RUSH CITY      SUNNY     61  44  54 CALM      30.01R
MOOSE LAKE     SUNNY     63  37  39 S9        29.97F
HINCKLEY       FAIR      61  45  55 CALM      30.00F
CLOQUET        SUNNY     64  36  34 S7        29.97F
MCGREGOR       SUNNY     64  41  42 S7        29.98F
$$
MNZ071>073-080-081-089-090-097-098-171800-
   Southwest Minnesota

CITY           SKY/WX    TMP DP  RH WIND       PRES   REMARKS
MONTEVIDEO     SUNNY     70  45  40 CALM      30.00F
GRANITE FALLS  SUNNY     68  42  39 SW3       30.02S
CANBY          SUNNY     71  36  27 NW10      30.01S
MARSHALL       SUNNY     71  39  31 W12       30.01F
REDWOOD FALLS  SUNNY     65  40  39 SW5       30.01F
OLIVIA         SUNNY     63  43  48 CALM      30.01S HAZE
PIPESTONE      SUNNY     66  43  42 W6        30.03F
WORTHINGTON    SUNNY     67  41  38 SW8       30.05S
JACKSON        SUNNY     66  41  39 SW7       30.05S
TRACY          SUNNY     71  41  33 SW8       30.02S
SLAYTON        SUNNY     68  40  35 SW9       30.04F
$$
MNZ065>067-074>077-082>085-091>093-171800-
   South Central Minnesota

CITY           SKY/WX    TMP DP  RH WIND       PRES   REMARKS
MANKATO        SUNNY     63  43  48 VRB7      30.04S
NEW ULM        SUNNY     64  43  45 CALM      30.02S
ST JAMES       SUNNY     66  43  42 SE5       30.04S
FAIRMONT       SUNNY     67  44  43 MISG      30.05S
GLENCOE        SUNNY     64  45  49 S3        30.01F
FARIBAULT      SUNNY     63  45  51 S7        30.04S
OWATONNA       SUNNY     64  45  48 SW5       30.05S
WASECA         SUNNY     63  41  45 SW3       30.06S
ALBERT LEA     SUNNY     66  45  45 CALM      30.06S
$$
MNZ078>079-086>088-094>096-171800-
   Southeast Minnesota

CITY           SKY/WX    TMP DP  RH WIND       PRES   REMARKS
ROCHESTER      SUNNY     64  46  52 VRB6      30.07S
RED WING       SUNNY     61  43  51 SE5       30.03S
STANTON        SUNNY     64  44  46 SW8       30.02S
DODGE CENTER   SUNNY     64  41  42 SW8       30.05F
WINONA         SUNNY     63  43  48 CALM      30.07S
AUSTIN         SUNNY     63  43  48 SW8       30.06S
PRESTON        SUNNY     62  42  49 SW6       30.08S
$$
ABBREVIATIONS USED IN REMARKS
   TC - TEMPERATURES IN CELSIUS
  WCI - WIND CHILL INDEX
   HX - HEAT INDEX
  VSB - VISIBILITY
$$




USA.gov is the U.S. government's official web portal to all federal, state and local government web resources and services.